Location: Unspecified
(0.0000°N, 0.0000°E)
Time: 20:40:11
(UTC+00:00)

COSMOS 1275 DEB - Pass Details

Date: 17 March 2026
Orbit: 902 x 973 km, 82.9° (Epoch: 8 April)

Event Time Altitude Azimuth Distance (km) Brightness Sun altitude
Rises 18:38:27 0° 359° (N) 3,651 ? -7.5°
Reaches altitude 10° 18:40:57 10° 1° (N) 2,707 ? -8.2°
Maximum altitude 18:47:10 79° 87° (E) 990 ? -9.7°
Drops below altitude 10° 18:53:21 10° 173° (S) 2,699 ? -11.3°
Sets 18:55:51 0° 174° (S) 3,639 ? -11.9°
